Location: Asheville, NC
(35.6000°N, 82.5500°W)
Time: 21:05:53

STARS - Pass Details

Date: 05 January 2018
Orbit: 625 x 641 km, 98.3° (Epoch: 18 March)

Event Time Altitude Azimuth Distance (km) Brightness Sun altitude
Exits shadow 19:21:11 - 358° (N) 2,969 ? -21.8°
Rises 19:21:18 0° 358° (N) 2,923 ? -21.8°
Reaches altitude 10° 19:23:47 10° 346° (NNW) 2,014 ? -22.3°
Maximum altitude 19:27:22 25° 290° (WNW) 1,266 ? -23.0°
Drops below altitude 10° 19:30:58 10° 235° (SW) 2,011 ? -23.7°
Sets 19:33:27 0° 222° (SW) 2,918 ? -24.2°
